Location: Conflandey
(47.7287°N, 6.0456°E)
Time: 20:08:14
(UTC+00:00)

Cosmos 304 Rocket - Pass Details

Date: 24 October 2021
Orbit: 678 x 688 km, 74.0° (Epoch: 05 December)

Event Time Altitude Azimuth Distance (km) Brightness Sun altitude
Rises 17:18:36 0° 174° (S) 3,024 7.1 -8.6°
Reaches altitude 10° 17:21:03 10° 165° (SSE) 2,115 6.2 -9.0°
Maximum altitude 17:25:17 33° 102° (ESE) 1,150 4.4 -9.7°
Drops below altitude 10° 17:29:33 10° 40° (NE) 2,135 5.9 -10.5°
Sets 17:32:02 0° 31° (NNE) 3,057 6.8 -10.9°
